AirNav   ATP
 
 395 users online  

I74 Grimes Field Airport
Urbana, Ohio, USA

GOING TO URBANA?


FAA INFORMATION EFFECTIVE 01 FEBRUARY 2018

Location

FAA Identifier: I74
Lat/Long: 40-07-56.5387N / 083-45-14.6258W
40-07.942312N / 083-45.243763W
40.1323719 / -83.7540627
(estimated)
Elevation: 1067.9 ft. / 325.5 m (surveyed)
Variation: 04W (1985)
From city: 1 mile N of URBANA, OH
Time zone: UTC -5 (UTC -4 during Daylight Saving Time)
Zip code: 43078

Airport Operations

Airport use: Open to the public
Activation date: 07/1942
Control tower: no
ARTCC: INDIANAPOLIS CENTER
FSS: DAYTON FLIGHT SERVICE STATION
NOTAMs facility: DAY (NOTAM-D service available)
Attendance: TUE-SAT 0800-1630, ALL SUN-MON UNATNDD
Pattern altitude: 1867.9 ft. MSL
Wind indicator: lighted
Segmented circle: no
Lights: ACTVT MIRL RY 02/20, & REIL RYS 02 & 20 - CTAF.
Beacon: white-green (lighted land airport)
Operates sunset to sunrise.

Airport Communications

CTAF/UNICOM: 122.7
WX AWOS-3: 118.325 (937-484-5863)
COLUMBUS APPROACH: 118.425
COLUMBUS DEPARTURE: 118.425
CLASS C IC: 118.425
WX AWOS-3 at EDJ (15 nm N): 118.075 (937-599-4654)
WX AWOS-3PT at SGH (18 nm S): 134.975
WX AWOS-3PT at UYF (18 nm SE): 120.85 (740-852-2844)
WX AWOS-3 at SCA (19 nm W): 120.425 (937-492-3683)
WX AWOS-3 at MRT (19 nm E): 119.275 (937-644-2967)

Nearby radio navigation aids

VOR radial/distance  VOR name  Freq  Var
RODr130/16.2ROSEWOOD VORTAC117.5005W
SGHr017/18.2SPRINGFIELD VOR/DME113.2004W
DQNr078/30.3DAYTON VOR/DME114.5001W

 
NDB name  Hdg/Dist  Freq  Var  ID
CLARK COUNTY008/15.634104WCCJ -.-. -.-. .---
COURT HOUSE338/36.041406WCSS -.-. ... ...

Airport Services

Fuel available: 100LL JET-A+
Parking: hangars and tiedowns
Airframe service: MINOR
Powerplant service: MINOR

Runway Information

Runway 2/20

Dimensions: 4400 x 100 ft. / 1341 x 30 m
Surface: asphalt, in good condition
Runway edge lights: medium intensity
RUNWAY 2  RUNWAY 20
Latitude: 40-07.609412N40-08.299047N
Longitude: 083-45.357170W083-45.067192W
Elevation: 1057.8 ft.1067.5 ft.
Gradient: 0.2%0.2%
Traffic pattern: leftleft
Runway heading: 022 magnetic, 018 true202 magnetic, 198 true
Markings: nonprecision, in good conditionnonprecision, in good condition
Visual slope indicator: 4-light PAPI on right (3.00 degrees glide path)4-light PAPI on left (3.00 degrees glide path)
Runway end identifier lights: yesyes
Touchdown point: yes, no lightsyes, no lights
Obstructions: 65 ft. tree, 2150 ft. from runway, 50 ft. left of centerline, 30:1 slope to clear72 ft. tree, 2744 ft. from runway, 35:1 slope to clear

Runway 1/19

Dimensions: 3000 x 100 ft. / 914 x 30 m
Surface: turf, in good condition
RUNWAY 1  RUNWAY 19
Latitude: 40-07.680167N40-08.169500N
Longitude: 083-45.334333W083-45.245833W
Elevation: 1060.0 ft.1060.0 ft.
Traffic pattern: leftleft
Runway heading: 012 magnetic, 008 true192 magnetic, 188 true

Airport Ownership and Management from official FAA records

Ownership: Publicly-owned
Owner: CITY OF URBANA
205 S MAIN ST
URBANA, OH 43078
Phone (937) 652-4304
Manager: ELTON CULTICE
1636 N MAIN ST
URBANA, OH 43078
Phone 937-652-4319
AMGR CELL 937-508-5948.

Airport Operational Statistics

Aircraft based on the field: 48
Single engine airplanes: 32
Multi engine airplanes: 11
Helicopters: 1
Ultralights: 4
    
Aircraft operations: avg 64/day *
51% transient general aviation
46% local general aviation
2% military
2% air taxi
* for 12-month period ending 03 September 2016

Additional Remarks

COLUMBUS CD (614) 338-8537.

Instrument Procedures

NOTE: All procedures below are presented as PDF files. If you need a reader for these files, you should download the free Adobe Reader.

NOT FOR NAVIGATION. Please procure official charts for flight.
FAA instrument procedures published for use between 1 February 2018 at 0901Z and 1 March 2018 at 0900Z.

 
IAPs - Instrument Approach Procedures
RNAV (GPS) RWY 02   download (218KB)
RNAV (GPS) RWY 20   download (226KB)
VOR-A   download (143KB)
NOTE: Special Alternate Minimums apply   download (21KB)
NOTE: Special Take-Off Minimums/Departure Procedures apply   download (164KB)

Other nearby airports with instrument procedures:

KEDJ - Bellefontaine Regional Airport (15 nm N)
KSGH - Springfield-Beckley Municipal Airport (18 nm S)
KUYF - Madison County Airport (18 nm SE)
KSCA - Sidney Municipal Airport (19 nm W)
KMRT - Union County Airport (19 nm E)
 
Loc | Ops | Rwys | IFR | FBO | Links
Com | Nav | Svcs | Stats | Notes

AirNav Hotels Sweepstakes
 
Area around I74 (Grimes Field Airport)
 
Road maps at: MapQuest Bing Google
 
Aerial photo
WARNING: Photo may not be current or correct
Aerial photo of I74 (Grimes Field Airport)
Photo by Michael Armstrong
Photo taken 11-Oct-2013
looking west.

Do you have a better or more recent aerial photo of Grimes Field Airport that you would like to share? If so, please send us your photo.

 
Sectional chart

 
Airport diagram
CAUTION: Diagram may not be current
Diagram of I74 (Grimes Field Airport)
 
Airport distance calculator
Flying to Grimes Field Airport? Find the distance to fly.

From to I74

Sunrise and sunset
Times for 24-Feb-2018
 Local
(UTC-5)
 Zulu
(UTC)
Morning civil twilight06:4911:49
Sunrise07:1712:17
Sunset18:2023:20
Evening civil twilight18:4723:47

Current date and time
Zulu (UTC)  24-Feb-2018 07:44:21
Local (UTC-5)  24-Feb-2018 02:44:21
 
METAR
KEDJ 
15nm N 
240735Z AUTO 33004KT 7SM OVC005 06/06 A3023 RMK AO1
KUYF 
18nm SE 
240735Z AUTO 01007KT 10SM -RA BKN010 BKN040 OVC080 10/08 A3016 RMK AO2
KSGH 
19nm S 
240656Z AUTO 00000KT 8SM -RA OVC009 09/08 A3020 RMK AO2 RAB41 SLP229 P0000 T00890078
KMRT 
19nm E 
240735Z AUTO 34006KT 10SM OVC009 08/06 A3021 RMK AO2 T00800063
KFFO 
23nm SW 
240656Z 34007KT 10SM -RA OVC012 09/07 A3019 RMK AO2A SLP227 P0000 T00920073
KDAY 
25nm SW 
240656Z 32006KT 9SM BKN009 OVC110 08/07 A3021 RMK AO2 SLP232 T00830072
TAF
KFFO 
23nm SW 
240300Z 2403/2509 VRB06KT 9999 OVC010 QNH3017INS BECMG 2408/2409 VRB06KT 6000 -RA BR OVC007 QNH2997INS BECMG 2421/2422 09012KT 4800 -RA BR OVC003 510203 QNH2969INS BECMG 2506/2507 20010G15KT 8000 -RA BR OVC007 510203 QNH2966INS TX13/2421Z TN05/2412Z
KDAY 
25nm SW 
240540Z 2406/2506 03005KT P6SM OVC012 FM241000 02007KT 5SM BR VCSH OVC012 FM241200 04008KT 4SM -RA OVC015 TEMPO 2414/2417 2SM -RA OVC008 FM241900 09010KT P6SM VCSH OVC022 FM250200 14013KT 5SM -SHRA BR SCT012 OVC020
NOTAMs
Click for the latest NOTAMs
NOTAMs are issued by the DoD/FAA and will open in a separate window not controlled by AirNav.

 

 
 

FBO, Fuel Providers, and Aircraft Ground Support

  
 Business Name 
 
 Contact 
 
 Services / Description 
 
Fuel Prices
 
Comments
  
Grimes Field UNICOM 122.70
937-652-4319
937-508-5948
[web site]
[email]
Airport management, Aviation fuel, Aircraft parking (ramp or tiedown), Catering, Rental cars, Courtesy transportation, Pilots lounge / snooze room, Public telephone, ...
More info and photos of Grimes Field
Phillips 66
100LL Jet A
SS $4.50 $3.75 
 Updated 12-Feb-2018
 
   3 read write
SS=Self service
Update Fuel Prices
 

Where to Eat: Catering, Restaurants, Food shops

  
 Business Name 
 
 Contact 
 
 Services / Description 
 
Distance
 
Comments
  
The Airport Cafe 937-652-2010
no information available

If you are affiliated with The Airport Cafe and would like to show here your services, contact info, web link, logo, and more, click here
on airport  
   2 read write
 

Would you like to see your business listed on this page?

 If your business provides an interesting product or service to pilots, flight crews, aircraft, or users of the Grimes Field Airport, you should consider listing it here.  To start the listing process, click on the button below
 
Add a business
 

Other Pages about Grimes Field Airport

www.grimesfield.com
 
Update a link
 
Copyright © AirNav, LLC. All rights reserved. Privacy Policy  Contact